Terug naar catalogus

STARLINK-36623

ActiefCommunicatieVLEO
NORAD 67644·PAYLOAD·🇺🇸 United States

Gelanceerd Jan 30, 2026 vanaf Cape Canaveral Space Force Station

Loading…

Volgende Passages (komende 24 uur)

TLE

VersSource: CelesTrak SupGP

Epoch: Sep 14, 2026, 23:13 UTC

1 67644C 26020AD  26257.96784722 -.00052840  00000+0 -19139-2 0  2576
2 67644  43.0025 150.5455 0001196 271.7051 123.2942 15.27604736    13

Volg STARLINK-36623 in realtime met AllMySat

Download on the App Store